Time,TemperatureF,DewpointF,PressureIn,WindDirection,WindDirectionDegrees,WindSpeedMPH,WindSpeedGustMPH,Humidity,HourlyPrecipIn,Conditions,Clouds,dailyrainin,SoftwareType,DateUTC
2013-02-04 00:04:00,22.7,18.9,30.04,SE,142,3.0,4.0,85,0.00,,,0.00,Wunderground v.1.15,2013-02-04 06:04:00,
2013-02-04 00:09:00,22.9,19.1,30.03,SE,139,3.0,4.0,85,0.00,,,0.00,Wunderground v.1.15,2013-02-04 06:09:00,
2013-02-04 00:14:00,23.1,19.3,30.02,ESE,121,4.0,5.0,85,0.00,,,0.00,Wunderground v.1.15,2013-02-04 06:14:00,
2013-02-04 00:19:00,23.4,19.6,30.02,ESE,109,4.0,5.0,85,0.00,,,0.00,Wunderground v.1.15,2013-02-04 06:19:00,
2013-02-04 00:25:00,23.7,19.3,30.01,ESE,123,4.0,5.0,83,0.00,,,0.00,Wunderground v.1.15,2013-02-04 06:25:00,
2013-02-04 00:31:00,23.9,19.2,30.01,SE,130,4.0,4.0,82,0.00,,,0.00,Wunderground v.1.15,2013-02-04 06:31:00,
2013-02-04 00:37:00,23.9,19.2,30.01,ESE,116,5.0,6.0,82,0.00,,,0.00,Wunderground v.1.15,2013-02-04 06:37:00,
2013-02-04 00:43:00,23.8,19.1,30.01,SE,141,6.0,6.0,82,0.00,,,0.00,Wunderground v.1.15,2013-02-04 06:43:00,
2013-02-04 00:48:00,23.6,18.9,30.00,SE,139,5.0,6.0,82,0.00,,,0.00,Wunderground v.1.15,2013-02-04 06:48:00,
2013-02-04 00:53:00,23.6,18.9,30.00,SE,141,6.0,7.0,82,0.00,,,0.00,Wunderground v.1.15,2013-02-04 06:53:00,
2013-02-04 00:58:00,23.4,18.7,30.00,SSE,149,6.0,7.0,82,0.00,,,0.00,Wunderground v.1.15,2013-02-04 06:58:00,
2013-02-04 01:04:00,23.2,18.8,29.99,SE,142,6.0,6.0,83,0.00,,,0.00,Wunderground v.1.15,2013-02-04 07:04:00,
2013-02-04 01:09:00,23.1,18.7,29.99,SE,142,6.0,7.0,83,0.00,,,0.00,Wunderground v.1.15,2013-02-04 07:09:00,
2013-02-04 01:14:00,23.0,18.6,29.99,SE,142,7.0,8.0,83,0.00,,,0.00,Wunderground v.1.15,2013-02-04 07:14:00,
2013-02-04 01:20:00,23.0,18.9,29.98,SSE,149,7.0,7.0,84,0.00,,,0.00,Wunderground v.1.15,2013-02-04 07:20:00,
2013-02-04 01:25:00,23.1,19.0,29.98,SE,146,6.0,7.0,84,0.00,,,0.00,Wunderground v.1.15,2013-02-04 07:25:00,
2013-02-04 01:30:00,23.2,19.1,29.98,SE,134,6.0,7.0,84,0.00,,,0.00,Wunderground v.1.15,2013-02-04 07:30:00,
2013-02-04 01:35:00,23.4,19.3,29.97,SE,134,7.0,8.0,84,0.00,,,0.00,Wunderground v.1.15,2013-02-04 07:35:00,
2013-02-04 01:40:00,23.6,19.5,29.97,SE,135,7.0,7.0,84,0.00,,,0.00,Wunderground v.1.15,2013-02-04 07:40:00,
2013-02-04 01:46:00,23.8,19.7,29.97,SE,135,8.0,9.0,84,0.00,,,0.00,Wunderground v.1.15,2013-02-04 07:46:00,
2013-02-04 01:51:00,24.0,19.9,29.97,SE,142,8.0,10.0,84,0.00,,,0.00,Wunderground v.1.15,2013-02-04 07:51:00,
2013-02-04 01:56:00,24.0,19.9,29.96,SSE,151,9.0,11.0,84,0.00,,,0.00,Wunderground v.1.15,2013-02-04 07:56:00,
2013-02-04 02:02:00,24.0,19.9,29.96,SSE,152,9.0,10.0,84,0.00,,,0.00,Wunderground v.1.15,2013-02-04 08:02:00,
2013-02-04 02:07:00,24.0,19.9,29.96,SE,138,9.0,11.0,84,0.00,,,0.00,Wunderground v.1.15,2013-02-04 08:07:00,
2013-02-04 02:12:00,23.9,20.0,29.96,SSE,147,8.0,9.0,85,0.00,,,0.00,Wunderground v.1.15,2013-02-04 08:12:00,
2013-02-04 02:17:00,23.9,20.0,29.96,SE,128,7.0,9.0,85,0.00,,,0.00,Wunderground v.1.15,2013-02-04 08:17:00,
2013-02-04 02:22:00,24.0,20.1,29.96,SE,133,7.0,7.0,85,0.00,,,0.00,Wunderground v.1.15,2013-02-04 08:22:00,
2013-02-04 02:27:00,24.1,20.2,29.95,SE,126,7.0,8.0,85,0.00,,,0.00,Wunderground v.1.15,2013-02-04 08:27:00,
2013-02-04 02:32:00,24.3,20.2,29.95,SSE,147,7.0,10.0,84,0.00,,,0.00,Wunderground v.1.15,2013-02-04 08:32:00,
2013-02-04 02:37:00,24.3,20.2,29.94,SE,138,8.0,10.0,84,0.00,,,0.00,Wunderground v.1.15,2013-02-04 08:37:00,
2013-02-04 02:42:00,24.4,20.3,29.94,SE,134,9.0,10.0,84,0.00,,,0.00,Wunderground v.1.15,2013-02-04 08:42:00,
2013-02-04 02:47:00,24.5,20.4,29.94,SE,126,8.0,10.0,84,0.00,,,0.00,Wunderground v.1.15,2013-02-04 08:47:00,
2013-02-04 02:52:00,24.6,20.5,29.94,SE,133,7.0,9.0,84,0.00,,,0.00,Wunderground v.1.15,2013-02-04 08:52:00,
2013-02-04 02:57:00,24.8,20.7,29.93,SE,127,7.0,9.0,84,0.00,,,0.00,Wunderground v.1.15,2013-02-04 08:57:00,
2013-02-04 03:03:00,25.2,20.8,29.93,ESE,106,7.0,11.0,83,0.00,,,0.00,Wunderground v.1.15,2013-02-04 09:03:00,
2013-02-04 03:08:00,25.5,20.8,29.92,SE,126,8.0,11.0,82,0.00,,,0.00,Wunderground v.1.15,2013-02-04 09:08:00,
2013-02-04 03:13:00,25.4,20.7,29.92,SE,126,8.0,9.0,82,0.00,,,0.00,Wunderground v.1.15,2013-02-04 09:13:00,
2013-02-04 03:18:00,25.4,20.7,29.92,ESE,120,8.0,10.0,82,0.00,,,0.00,Wunderground v.1.15,2013-02-04 09:18:00,
2013-02-04 03:23:00,25.4,20.7,29.91,SE,139,9.0,10.0,82,0.00,,,0.00,Wunderground v.1.15,2013-02-04 09:23:00,
2013-02-04 03:29:00,25.4,20.7,29.91,SE,126,10.0,12.0,82,0.00,,,0.00,Wunderground v.1.15,2013-02-04 09:29:00,
2013-02-04 03:34:00,25.5,20.8,29.91,ESE,116,10.0,11.0,82,0.00,,,0.00,Wunderground v.1.15,2013-02-04 09:34:00,
2013-02-04 03:39:00,25.5,20.8,29.91,SE,126,10.0,11.0,82,0.00,,,0.00,Wunderground v.1.15,2013-02-04 09:39:00,
2013-02-04 03:44:00,25.6,20.9,29.90,SE,133,10.0,10.0,82,0.00,,,0.00,Wunderground v.1.15,2013-02-04 09:44:00,
2013-02-04 03:49:00,25.7,21.0,29.90,SE,142,9.0,10.0,82,0.00,,,0.00,Wunderground v.1.15,2013-02-04 09:49:00,
2013-02-04 03:54:00,25.7,21.0,29.90,SE,142,9.0,10.0,82,0.00,,,0.00,Wunderground v.1.15,2013-02-04 09:54:00,
2013-02-04 03:59:00,25.9,21.2,29.89,SE,141,9.0,11.0,82,0.00,,,0.00,Wunderground v.1.15,2013-02-04 09:59:00,
2013-02-04 04:05:00,26.0,21.0,29.89,SE,134,10.0,11.0,81,0.00,,,0.00,Wunderground v.1.15,2013-02-04 10:05:00,
2013-02-04 04:10:00,26.1,21.1,29.89,SE,142,9.0,9.0,81,0.00,,,0.00,Wunderground v.1.15,2013-02-04 10:10:00,
2013-02-04 04:15:00,26.1,21.1,29.89,SE,142,9.0,10.0,81,0.00,,,0.00,Wunderground v.1.15,2013-02-04 10:15:00,
2013-02-04 04:20:00,26.2,21.2,29.89,SE,134,9.0,9.0,81,0.00,,,0.00,Wunderground v.1.15,2013-02-04 10:20:00,
2013-02-04 04:25:00,26.3,21.0,29.89,SE,137,9.0,10.0,80,0.00,,,0.00,Wunderground v.1.15,2013-02-04 10:25:00,
2013-02-04 04:30:00,26.5,21.2,29.89,SE,137,8.0,8.0,80,0.00,,,0.00,Wunderground v.1.15,2013-02-04 10:30:00,
2013-02-04 04:36:00,26.6,21.0,29.88,ESE,107,8.0,9.0,79,0.00,,,0.00,Wunderground v.1.15,2013-02-04 10:36:00,
2013-02-04 04:41:00,26.8,21.2,29.88,ESE,117,7.0,8.0,79,0.00,,,0.00,Wunderground v.1.15,2013-02-04 10:41:00,
2013-02-04 04:46:00,26.9,21.0,29.88,SE,134,7.0,10.0,78,0.00,,,0.00,Wunderground v.1.15,2013-02-04 10:46:00,
2013-02-04 04:51:00,27.0,21.1,29.88,SE,139,8.0,9.0,78,0.00,,,0.00,Wunderground v.1.15,2013-02-04 10:51:00,
2013-02-04 04:56:00,27.0,21.1,29.88,SE,133,9.0,11.0,78,0.00,,,0.00,Wunderground v.1.15,2013-02-04 10:56:00,
2013-02-04 05:02:00,26.9,21.0,29.87,SE,134,10.0,12.0,78,0.00,,,0.00,Wunderground v.1.15,2013-02-04 11:02:00,
2013-02-04 05:08:00,27.0,21.1,29.86,SE,142,11.0,14.0,78,0.00,,,0.00,Wunderground v.1.15,2013-02-04 11:08:00,
2013-02-04 05:13:00,26.9,21.3,29.86,SE,138,11.0,11.0,79,0.00,,,0.00,Wunderground v.1.15,2013-02-04 11:13:00,
2013-02-04 05:18:00,26.9,21.3,29.86,SE,141,11.0,12.0,79,0.00,,,0.00,Wunderground v.1.15,2013-02-04 11:18:00,
2013-02-04 05:23:00,26.9,21.3,29.85,SE,138,11.0,11.0,79,0.00,,,0.00,Wunderground v.1.15,2013-02-04 11:23:00,
2013-02-04 05:28:00,27.0,21.4,29.85,SE,136,10.0,11.0,79,0.00,,,0.00,Wunderground v.1.15,2013-02-04 11:28:00,
2013-02-04 05:33:00,27.1,21.5,29.85,SE,142,10.0,10.0,79,0.00,,,0.00,Wunderground v.1.15,2013-02-04 11:33:00,
2013-02-04 05:38:00,27.2,21.5,29.85,SSE,152,10.0,13.0,79,0.00,,,0.00,Wunderground v.1.15,2013-02-04 11:38:00,
2013-02-04 05:43:00,27.3,21.6,29.85,SSE,151,11.0,14.0,79,0.00,,,0.00,Wunderground v.1.15,2013-02-04 11:43:00,
2013-02-04 05:48:00,27.3,21.6,29.84,SSE,152,12.0,15.0,79,0.00,,,0.00,Wunderground v.1.15,2013-02-04 11:48:00,
2013-02-04 05:53:00,27.4,21.7,29.84,SSE,166,12.0,12.0,79,0.00,,,0.00,Wunderground v.1.15,2013-02-04 11:53:00,
2013-02-04 05:59:00,27.5,21.8,29.84,SSE,167,13.0,16.0,79,0.00,,,0.00,Wunderground v.1.15,2013-02-04 11:59:00,
2013-02-04 06:05:00,27.4,21.7,29.83,SSE,156,13.0,17.0,79,0.00,,,0.00,Wunderground v.1.15,2013-02-04 12:05:00,
2013-02-04 06:10:00,27.3,21.9,29.83,SW,215,13.0,13.0,80,0.00,,,0.00,Wunderground v.1.15,2013-02-04 12:10:00,
2013-02-04 06:15:00,27.3,22.2,29.83,SSW,192,12.0,13.0,81,0.00,,,0.00,Wunderground v.1.15,2013-02-04 12:15:00,
2013-02-04 06:20:00,27.2,22.1,29.83,SSW,194,11.0,13.0,81,0.00,,,0.00,Wunderground v.1.15,2013-02-04 12:20:00,
2013-02-04 06:26:00,27.2,22.1,29.82,South,171,11.0,13.0,81,0.00,,,0.00,Wunderground v.1.15,2013-02-04 12:26:00,
2013-02-04 06:31:00,27.2,22.4,29.83,South,173,10.0,13.0,82,0.00,,,0.00,Wunderground v.1.15,2013-02-04 12:31:00,
2013-02-04 06:36:00,27.2,22.4,29.82,SSW,201,10.0,13.0,82,0.00,,,0.00,Wunderground v.1.15,2013-02-04 12:36:00,
2013-02-04 06:41:00,27.2,22.4,29.82,South,175,10.0,12.0,82,0.00,,,0.00,Wunderground v.1.15,2013-02-04 12:41:00,
2013-02-04 06:46:00,27.3,22.5,29.82,South,180,10.0,12.0,82,0.00,,,0.00,Wunderground v.1.15,2013-02-04 12:46:00,
2013-02-04 06:51:00,27.3,22.8,29.82,South,186,10.0,12.0,83,0.00,,,0.00,Wunderground v.1.15,2013-02-04 12:51:00,
2013-02-04 06:57:00,27.4,22.9,29.82,SSW,198,9.0,12.0,83,0.00,,,0.00,Wunderground v.1.15,2013-02-04 12:57:00,
2013-02-04 07:02:00,27.4,22.9,29.83,SSE,163,7.0,10.0,83,0.00,,,0.00,Wunderground v.1.15,2013-02-04 13:02:00,
2013-02-04 07:07:00,27.5,23.0,29.83,SW,223,5.0,10.0,83,0.00,,,0.00,Wunderground v.1.15,2013-02-04 13:07:00,
2013-02-04 07:12:00,27.6,23.1,29.83,SW,229,2.0,4.0,83,0.00,,,0.00,Wunderground v.1.15,2013-02-04 13:12:00,
2013-02-04 07:17:00,27.6,23.1,29.83,SW,220,1.0,4.0,83,0.00,,,0.00,Wunderground v.1.15,2013-02-04 13:17:00,
2013-02-04 07:23:00,27.7,23.2,29.82,SSW,202,3.0,5.0,83,0.00,,,0.00,Wunderground v.1.15,2013-02-04 13:23:00,
2013-02-04 07:28:00,28.0,23.5,29.82,SW,223,5.0,6.0,83,0.00,,,0.00,Wunderground v.1.15,2013-02-04 13:28:00,
2013-02-04 07:33:00,28.1,23.6,29.82,SW,230,4.0,5.0,83,0.00,,,0.00,Wunderground v.1.15,2013-02-04 13:33:00,
2013-02-04 07:38:00,28.3,23.8,29.82,SW,226,4.0,6.0,83,0.00,,,0.00,Wunderground v.1.15,2013-02-04 13:38:00,
2013-02-04 07:43:00,28.5,24.0,29.82,South,183,6.0,8.0,83,0.00,,,0.00,Wunderground v.1.15,2013-02-04 13:43:00,
2013-02-04 07:48:00,28.8,24.0,29.82,SSW,197,6.0,8.0,82,0.00,,,0.00,Wunderground v.1.15,2013-02-04 13:48:00,
2013-02-04 07:53:00,29.0,24.2,29.82,SSW,209,6.0,7.0,82,0.00,,,0.00,Wunderground v.1.15,2013-02-04 13:53:00,
2013-02-04 07:58:00,29.1,24.3,29.82,SSW,213,7.0,9.0,82,0.00,,,0.00,Wunderground v.1.15,2013-02-04 13:58:00,
2013-02-04 08:04:00,29.3,24.5,29.82,SSW,206,8.0,9.0,82,0.00,,,0.00,Wunderground v.1.15,2013-02-04 14:04:00,
2013-02-04 08:09:00,29.4,24.6,29.82,SW,216,8.0,10.0,82,0.00,,,0.00,Wunderground v.1.15,2013-02-04 14:09:00,
2013-02-04 08:14:00,29.6,24.8,29.82,SW,222,9.0,9.0,82,0.00,,,0.00,Wunderground v.1.15,2013-02-04 14:14:00,
2013-02-04 08:20:00,29.7,24.9,29.82,SSW,213,8.0,8.0,82,0.00,,,0.00,Wunderground v.1.15,2013-02-04 14:20:00,
2013-02-04 08:25:00,29.8,25.0,29.82,SW,232,8.0,8.0,82,0.00,,,0.00,Wunderground v.1.15,2013-02-04 14:25:00,
2013-02-04 08:30:00,30.0,25.2,29.82,SSW,212,7.0,7.0,82,0.00,,,0.00,Wunderground v.1.15,2013-02-04 14:30:00,
2013-02-04 08:35:00,30.0,25.2,29.82,SSW,211,7.0,8.0,82,0.00,,,0.00,Wunderground v.1.15,2013-02-04 14:35:00,
2013-02-04 08:40:00,30.2,25.4,29.81,SSW,211,6.0,6.0,82,0.00,,,0.00,Wunderground v.1.15,2013-02-04 14:40:00,
2013-02-04 08:45:00,30.4,25.6,29.81,SSW,212,6.0,8.0,82,0.00,,,0.00,Wunderground v.1.15,2013-02-04 14:45:00,
2013-02-04 08:51:00,30.7,25.6,29.81,SW,222,7.0,9.0,81,0.00,,,0.00,Wunderground v.1.15,2013-02-04 14:51:00,
2013-02-04 08:56:00,30.9,26.1,29.81,SW,215,8.0,9.0,82,0.00,,,0.00,Wunderground v.1.15,2013-02-04 14:56:00,
2013-02-04 09:02:00,31.2,26.3,29.81,SW,229,7.0,7.0,82,0.00,,,0.00,Wunderground v.1.15,2013-02-04 15:02:00,
2013-02-04 09:07:00,31.4,26.2,29.81,SW,229,7.0,7.0,81,0.00,,,0.00,Wunderground v.1.15,2013-02-04 15:07:00,
2013-02-04 09:12:00,31.7,26.5,29.81,SSW,213,7.0,12.0,81,0.00,,,0.00,Wunderground v.1.15,2013-02-04 15:12:00,
2013-02-04 09:18:00,31.9,26.4,29.81,SW,227,8.0,12.0,80,0.00,,,0.00,Wunderground v.1.15,2013-02-04 15:18:00,
2013-02-04 09:23:00,32.0,26.8,29.81,WSW,239,7.0,8.0,81,0.00,,,0.00,Wunderground v.1.15,2013-02-04 15:23:00,
2013-02-04 09:29:00,32.1,26.6,29.82,SW,230,7.0,8.0,80,0.00,,,0.00,Wunderground v.1.15,2013-02-04 15:29:00,
2013-02-04 09:34:00,32.3,27.1,29.82,WSW,249,6.0,7.0,81,0.00,,,0.00,Wunderground v.1.15,2013-02-04 15:34:00,
2013-02-04 09:39:00,32.4,26.6,29.82,WSW,256,6.0,8.0,79,0.00,,,0.00,Wunderground v.1.15,2013-02-04 15:39:00,
2013-02-04 09:44:00,32.5,26.7,29.81,West,260,8.0,9.0,79,0.00,,,0.00,Wunderground v.1.15,2013-02-04 15:44:00,
2013-02-04 09:49:00,32.5,26.7,29.82,West,260,9.0,10.0,79,0.00,,,0.00,Wunderground v.1.15,2013-02-04 15:49:00,
2013-02-04 09:54:00,32.5,26.7,29.82,West,262,7.0,9.0,79,0.00,,,0.00,Wunderground v.1.15,2013-02-04 15:54:00,
2013-02-04 09:59:00,32.5,26.7,29.82,WSW,250,5.0,9.0,79,0.00,,,0.00,Wunderground v.1.15,2013-02-04 15:59:00,
2013-02-04 10:05:00,32.6,27.1,29.82,West,264,3.0,4.0,80,0.00,,,0.00,Wunderground v.1.15,2013-02-04 16:05:00,
2013-02-04 10:10:00,32.7,27.2,29.82,West,265,3.0,6.0,80,0.00,,,0.00,Wunderground v.1.15,2013-02-04 16:10:00,
2013-02-04 10:15:00,32.7,27.2,29.82,WSW,240,5.0,7.0,80,0.00,,,0.00,Wunderground v.1.15,2013-02-04 16:15:00,
2013-02-04 10:20:00,32.8,27.3,29.83,WSW,249,6.0,7.0,80,0.00,,,0.00,Wunderground v.1.15,2013-02-04 16:20:00,
2013-02-04 10:25:00,32.7,26.9,29.83,West,271,5.0,7.0,79,0.00,,,0.00,Wunderground v.1.15,2013-02-04 16:25:00,
2013-02-04 10:30:00,32.6,26.8,29.83,WNW,288,5.0,5.0,79,0.00,,,0.00,Wunderground v.1.15,2013-02-04 16:30:00,
2013-02-04 10:35:00,32.6,26.8,29.83,West,261,5.0,7.0,79,0.00,,,0.00,Wunderground v.1.15,2013-02-04 16:35:00,
2013-02-04 10:40:00,32.6,26.8,29.82,WNW,288,4.0,4.0,79,0.00,,,0.00,Wunderground v.1.15,2013-02-04 16:40:00,
2013-02-04 10:45:00,32.7,26.9,29.82,West,277,3.0,4.0,79,0.00,,,0.00,Wunderground v.1.15,2013-02-04 16:45:00,
2013-02-04 10:50:00,32.9,27.4,29.82,WNW,288,3.0,3.0,80,0.00,,,0.00,Wunderground v.1.15,2013-02-04 16:50:00,
2013-02-04 10:55:00,33.0,27.5,29.82,WNW,288,3.0,6.0,80,0.00,,,0.00,Wunderground v.1.15,2013-02-04 16:55:00,
2013-02-04 11:00:00,32.9,27.1,29.83,NW,318,4.0,5.0,79,0.00,,,0.00,Wunderground v.1.15,2013-02-04 17:00:00,
2013-02-04 11:06:00,33.0,27.2,29.82,WNW,287,3.0,5.0,79,0.00,,,0.00,Wunderground v.1.15,2013-02-04 17:06:00,
2013-02-04 11:11:00,33.1,27.6,29.82,NNW,329,3.0,4.0,80,0.00,,,0.00,Wunderground v.1.15,2013-02-04 17:11:00,
2013-02-04 11:16:00,33.5,28.0,29.82,West,271,3.0,4.0,80,0.00,,,0.00,Wunderground v.1.15,2013-02-04 17:16:00,
2013-02-04 11:22:00,33.6,27.5,29.82,West,265,3.0,8.0,78,0.00,,,0.00,Wunderground v.1.15,2013-02-04 17:22:00,
2013-02-04 11:28:00,33.5,27.4,29.82,WNW,287,5.0,8.0,78,0.00,,,0.00,Wunderground v.1.15,2013-02-04 17:28:00,
2013-02-04 11:33:00,33.7,27.9,29.82,WNW,299,5.0,7.0,79,0.00,,,0.00,Wunderground v.1.15,2013-02-04 17:33:00,
2013-02-04 11:38:00,33.9,27.8,29.82,WNW,298,5.0,8.0,78,0.00,,,0.00,Wunderground v.1.15,2013-02-04 17:38:00,
2013-02-04 11:43:00,33.9,28.1,29.81,West,260,6.0,6.0,79,0.00,,,0.00,Wunderground v.1.15,2013-02-04 17:43:00,
2013-02-04 11:48:00,34.1,28.3,29.82,WNW,282,5.0,8.0,79,0.00,,,0.00,Wunderground v.1.15,2013-02-04 17:48:00,
2013-02-04 11:53:00,34.3,28.2,29.82,NNW,334,5.0,10.0,78,0.00,,,0.00,Wunderground v.1.15,2013-02-04 17:53:00,
2013-02-04 11:59:00,34.0,27.5,29.81,WNW,295,6.0,10.0,77,0.00,,,0.00,Wunderground v.1.15,2013-02-04 17:59:00,
2013-02-04 12:04:00,34.0,27.5,29.81,NW,308,8.0,11.0,77,0.00,,,0.00,Wunderground v.1.15,2013-02-04 18:04:00,
2013-02-04 12:10:00,34.0,28.2,29.81,NNW,344,8.0,8.0,79,0.00,,,0.00,Wunderground v.1.15,2013-02-04 18:10:00,
2013-02-04 12:15:00,34.1,27.6,29.81,NW,315,7.0,9.0,77,0.00,,,0.00,Wunderground v.1.15,2013-02-04 18:15:00,
2013-02-04 12:20:00,34.1,28.3,29.82,NNW,341,8.0,9.0,79,0.00,,,0.00,Wunderground v.1.15,2013-02-04 18:20:00,
2013-02-04 12:25:00,34.1,28.6,29.81,NNW,342,8.0,10.0,80,0.00,,,0.00,Wunderground v.1.15,2013-02-04 18:25:00,
2013-02-04 12:30:00,33.9,27.1,29.81,North,353,9.0,11.0,76,0.00,,,0.00,Wunderground v.1.15,2013-02-04 18:30:00,
2013-02-04 12:36:00,33.9,27.4,29.82,NNW,341,10.0,11.0,77,0.00,,,0.00,Wunderground v.1.15,2013-02-04 18:36:00,
2013-02-04 12:41:00,34.1,28.0,29.81,NNW,346,9.0,9.0,78,0.00,,,0.00,Wunderground v.1.15,2013-02-04 18:41:00,
2013-02-04 12:46:00,34.0,27.5,29.81,NNW,348,9.0,17.0,77,0.00,,,0.00,Wunderground v.1.15,2013-02-04 18:46:00,
2013-02-04 12:51:00,33.9,27.8,29.81,NNW,348,10.0,13.0,78,0.00,,,0.00,Wunderground v.1.15,2013-02-04 18:51:00,
2013-02-04 12:56:00,33.8,27.4,29.81,NNW,334,11.0,14.0,77,0.00,,,0.00,Wunderground v.1.15,2013-02-04 18:56:00,
2013-02-04 13:02:00,34.0,27.9,29.81,North,356,9.0,10.0,78,0.00,,,0.00,Wunderground v.1.15,2013-02-04 19:02:00,
2013-02-04 13:07:00,34.0,27.9,29.81,NNW,348,9.0,12.0,78,0.00,,,0.00,Wunderground v.1.15,2013-02-04 19:07:00,
2013-02-04 13:12:00,33.9,27.8,29.81,North,351,10.0,14.0,78,0.00,,,0.00,Wunderground v.1.15,2013-02-04 19:12:00,
2013-02-04 13:17:00,33.9,27.8,29.81,NNW,343,11.0,14.0,78,0.00,,,0.00,Wunderground v.1.15,2013-02-04 19:17:00,
2013-02-04 13:22:00,34.4,28.9,29.82,NNE,21,9.0,11.0,80,0.00,,,0.00,Wunderground v.1.15,2013-02-04 19:22:00,
2013-02-04 13:27:00,34.3,27.8,29.82,North,359,9.0,15.0,77,0.00,,,0.00,Wunderground v.1.15,2013-02-04 19:27:00,
2013-02-04 13:32:00,34.3,27.8,29.83,NNW,344,10.0,15.0,77,0.00,,,0.00,Wunderground v.1.15,2013-02-04 19:32:00,
2013-02-04 13:37:00,34.2,28.1,29.83,North,356,12.0,15.0,78,0.00,,,0.00,Wunderground v.1.15,2013-02-04 19:37:00,
2013-02-04 13:42:00,33.9,27.8,29.84,NNW,342,13.0,14.0,78,0.00,,,0.00,Wunderground v.1.15,2013-02-04 19:42:00,
2013-02-04 13:47:00,33.9,27.8,29.84,North,351,14.0,21.0,78,0.00,,,0.00,Wunderground v.1.15,2013-02-04 19:47:00,
2013-02-04 13:52:00,33.7,28.2,29.84,NNW,344,14.0,16.0,80,0.00,,,0.00,Wunderground v.1.15,2013-02-04 19:52:00,
2013-02-04 13:57:00,33.2,27.4,29.84,North,350,14.0,17.0,79,0.00,,,0.00,Wunderground v.1.15,2013-02-04 19:57:00,
2013-02-04 14:03:00,32.8,27.3,29.85,North,351,16.0,20.0,80,0.00,,,0.00,Wunderground v.1.15,2013-02-04 20:03:00,
2013-02-04 14:08:00,32.5,27.3,29.85,NNE,12,16.0,20.0,81,0.00,,,0.00,Wunderground v.1.15,2013-02-04 20:08:00,
2013-02-04 14:13:00,32.3,27.1,29.85,NNW,336,14.0,17.0,81,0.00,,,0.00,Wunderground v.1.15,2013-02-04 20:13:00,
2013-02-04 14:18:00,32.2,27.3,29.85,NNE,22,13.0,17.0,82,0.00,,,0.00,Wunderground v.1.15,2013-02-04 20:18:00,
2013-02-04 14:23:00,32.2,27.3,29.86,North,6,12.0,14.0,82,0.00,,,0.00,Wunderground v.1.15,2013-02-04 20:23:00,
2013-02-04 14:28:00,32.2,27.6,29.86,North,350,12.0,14.0,83,0.00,,,0.00,Wunderground v.1.15,2013-02-04 20:28:00,
2013-02-04 14:33:00,31.8,26.9,29.86,North,349,14.0,17.0,82,0.00,,,0.00,Wunderground v.1.15,2013-02-04 20:33:00,
2013-02-04 14:38:00,31.5,26.9,29.85,NNW,334,16.0,22.0,83,0.00,,,0.00,Wunderground v.1.15,2013-02-04 20:38:00,
2013-02-04 14:43:00,31.2,26.3,29.86,North,10,16.0,16.0,82,0.00,,,0.00,Wunderground v.1.15,2013-02-04 20:43:00,
2013-02-04 14:48:00,30.9,26.1,29.85,North,358,17.0,20.0,82,0.00,,,0.00,Wunderground v.1.15,2013-02-04 20:48:00,
2013-02-04 14:53:00,30.8,26.2,29.85,North,355,17.0,18.0,83,0.00,,,0.00,Wunderground v.1.15,2013-02-04 20:53:00,
2013-02-04 14:58:00,30.6,26.1,29.86,North,352,15.0,18.0,83,0.00,,,0.00,Wunderground v.1.15,2013-02-04 20:58:00,
2013-02-04 15:04:00,30.4,25.9,29.86,NNW,341,16.0,19.0,83,0.00,,,0.00,Wunderground v.1.15,2013-02-04 21:04:00,
2013-02-04 15:09:00,30.1,26.1,29.86,North,359,16.0,19.0,85,0.00,,,0.00,Wunderground v.1.15,2013-02-04 21:09:00,
2013-02-04 15:14:00,30.0,26.0,29.86,NNW,344,14.0,16.0,85,0.00,,,0.00,Wunderground v.1.15,2013-02-04 21:14:00,
2013-02-04 15:19:00,29.8,25.6,29.86,North,9,12.0,16.0,84,0.00,,,0.00,Wunderground v.1.15,2013-02-04 21:19:00,
2013-02-04 15:24:00,29.8,25.6,29.86,NNW,339,11.0,13.0,84,0.00,,,0.00,Wunderground v.1.15,2013-02-04 21:24:00,
2013-02-04 15:29:00,29.6,25.6,29.86,North,9,12.0,16.0,85,0.00,,,0.00,Wunderground v.1.15,2013-02-04 21:29:00,
2013-02-04 15:34:00,29.6,25.6,29.86,NNE,13,12.0,16.0,85,0.00,,,0.00,Wunderground v.1.15,2013-02-04 21:34:00,
2013-02-04 15:39:00,29.5,25.5,29.85,NNE,23,9.0,16.0,85,0.00,,,0.00,Wunderground v.1.15,2013-02-04 21:39:00,
2013-02-04 15:44:00,29.4,25.4,29.86,North,7,8.0,12.0,85,0.00,,,0.00,Wunderground v.1.15,2013-02-04 21:44:00,
2013-02-04 15:49:00,29.4,25.4,29.86,NNE,31,8.0,12.0,85,0.00,,,0.00,Wunderground v.1.15,2013-02-04 21:49:00,
2013-02-04 15:54:00,29.2,25.3,29.86,North,3,9.0,16.0,85,0.00,,,0.00,Wunderground v.1.15,2013-02-04 21:54:00,
2013-02-04 15:59:00,29.1,25.2,29.86,NNE,21,11.0,16.0,85,0.00,,,0.00,Wunderground v.1.15,2013-02-04 21:59:00,
2013-02-04 16:05:00,29.1,25.4,29.86,North,1,10.0,13.0,86,0.00,,,0.00,Wunderground v.1.15,2013-02-04 22:05:00,
2013-02-04 16:10:00,29.1,25.2,29.86,NNE,26,8.0,8.0,85,0.00,,,0.00,Wunderground v.1.15,2013-02-04 22:10:00,
2013-02-04 16:15:00,29.1,25.2,29.87,North,360,8.0,9.0,85,0.00,,,0.00,Wunderground v.1.15,2013-02-04 22:15:00,
2013-02-04 16:20:00,29.0,25.1,29.87,NE,34,7.0,7.0,85,0.00,,,0.00,Wunderground v.1.15,2013-02-04 22:20:00,
2013-02-04 16:25:00,29.1,25.4,29.87,North,10,6.0,7.0,86,0.00,,,0.00,Wunderground v.1.15,2013-02-04 22:25:00,
2013-02-04 16:30:00,29.2,25.3,29.87,North,5,6.0,7.0,85,0.00,,,0.00,Wunderground v.1.15,2013-02-04 22:30:00,
2013-02-04 16:35:00,29.1,25.2,29.87,North,355,7.0,9.0,85,0.00,,,0.00,Wunderground v.1.15,2013-02-04 22:35:00,
2013-02-04 16:41:00,29.2,25.3,29.87,NNE,12,7.0,7.0,85,0.00,,,0.00,Wunderground v.1.15,2013-02-04 22:41:00,
2013-02-04 16:46:00,29.1,25.2,29.87,NNE,17,6.0,7.0,85,0.00,,,0.00,Wunderground v.1.15,2013-02-04 22:46:00,
2013-02-04 16:51:00,29.2,25.5,29.88,North,356,6.0,8.0,86,0.00,,,0.00,Wunderground v.1.15,2013-02-04 22:51:00,
2013-02-04 16:56:00,29.2,25.3,29.88,North,10,6.0,8.0,85,0.00,,,0.00,Wunderground v.1.15,2013-02-04 22:56:00,
2013-02-04 17:02:00,29.2,25.5,29.89,North,5,9.0,11.0,86,0.00,,,0.00,Wunderground v.1.15,2013-02-04 23:02:00,
2013-02-04 17:07:00,29.1,25.2,29.89,NNE,20,11.0,12.0,85,0.00,,,0.00,Wunderground v.1.15,2013-02-04 23:07:00,
2013-02-04 17:13:00,29.1,25.4,29.89,North,358,9.0,13.0,86,0.00,,,0.00,Wunderground v.1.15,2013-02-04 23:13:00,
2013-02-04 17:19:00,29.1,25.2,29.89,North,9,8.0,13.0,85,0.00,,,0.00,Wunderground v.1.15,2013-02-04 23:19:00,
2013-02-04 17:25:00,29.0,25.1,29.90,North,5,9.0,16.0,85,0.00,,,0.00,Wunderground v.1.15,2013-02-04 23:25:00,
2013-02-04 17:31:00,29.0,25.3,29.90,NNW,342,11.0,11.0,86,0.00,,,0.00,Wunderground v.1.15,2013-02-04 23:31:00,
2013-02-04 17:36:00,29.0,25.3,29.90,North,353,11.0,14.0,86,0.00,,,0.00,Wunderground v.1.15,2013-02-04 23:36:00,
2013-02-04 17:42:00,28.9,25.0,29.91,NNE,21,12.0,12.0,85,0.00,,,0.00,Wunderground v.1.15,2013-02-04 23:42:00,
2013-02-04 17:48:00,28.9,25.5,29.92,NNW,348,11.0,14.0,87,0.00,,,0.00,Wunderground v.1.15,2013-02-04 23:48:00,
2013-02-04 17:54:00,28.7,25.6,29.92,NNW,328,11.0,11.0,88,0.00,,,0.00,Wunderground v.1.15,2013-02-04 23:54:00,
2013-02-04 17:59:00,28.5,25.4,29.93,NNW,338,11.0,16.0,88,0.00,,,0.00,Wunderground v.1.15,2013-02-04 23:59:00,
2013-02-04 18:05:00,28.4,25.6,29.93,NNW,339,10.0,11.0,89,0.00,,,0.00,Wunderground v.1.15,2013-02-05 00:05:00,
2013-02-04 18:11:00,28.2,25.1,29.93,NW,315,11.0,15.0,88,0.00,,,0.00,Wunderground v.1.15,2013-02-05 00:11:00,
2013-02-04 18:17:00,28.1,25.3,29.94,NNW,339,11.0,15.0,89,0.00,,,0.00,Wunderground v.1.15,2013-02-05 00:17:00,
2013-02-04 18:23:00,28.0,25.2,29.94,NNW,338,11.0,13.0,89,0.00,,,0.00,Wunderground v.1.15,2013-02-05 00:23:00,
2013-02-04 18:29:00,27.8,25.0,29.94,NNW,334,12.0,14.0,89,0.00,,,0.00,Wunderground v.1.15,2013-02-05 00:29:00,
2013-02-04 18:34:00,27.8,25.0,29.94,NNW,344,12.0,15.0,89,0.00,,,0.00,Wunderground v.1.15,2013-02-05 00:34:00,
2013-02-04 18:39:00,27.7,24.9,29.94,North,351,12.0,16.0,89,0.00,,,0.00,Wunderground v.1.15,2013-02-05 00:39:00,
2013-02-04 18:44:00,27.5,25.0,29.94,North,358,12.0,14.0,90,0.00,,,0.00,Wunderground v.1.15,2013-02-05 00:44:00,
2013-02-04 18:50:00,27.3,24.5,29.94,North,356,12.0,12.0,89,0.00,,,0.00,Wunderground v.1.15,2013-02-05 00:50:00,
2013-02-04 18:56:00,27.2,24.4,29.94,NNW,346,11.0,14.0,89,0.00,,,0.00,Wunderground v.1.15,2013-02-05 00:56:00,
2013-02-04 19:01:00,27.1,24.3,29.94,North,349,12.0,13.0,89,0.00,,,0.00,Wunderground v.1.15,2013-02-05 01:01:00,
2013-02-04 19:06:00,27.1,24.3,29.94,North,359,11.0,13.0,89,0.00,,,0.00,Wunderground v.1.15,2013-02-05 01:06:00,
2013-02-04 19:11:00,27.0,24.2,29.94,NNW,333,10.0,11.0,89,0.00,,,0.00,Wunderground v.1.15,2013-02-05 01:11:00,
2013-02-04 19:16:00,26.9,24.1,29.94,NNW,346,10.0,11.0,89,0.00,,,0.00,Wunderground v.1.15,2013-02-05 01:16:00,
2013-02-04 19:21:00,26.9,24.1,29.95,NNW,348,9.0,9.0,89,0.00,,,0.00,Wunderground v.1.15,2013-02-05 01:21:00,
2013-02-04 19:26:00,26.8,24.0,29.95,NNE,19,8.0,9.0,89,0.00,,,0.00,Wunderground v.1.15,2013-02-05 01:26:00,
2013-02-04 19:32:00,26.8,24.0,29.95,NNW,338,8.0,9.0,89,0.00,,,0.00,Wunderground v.1.15,2013-02-05 01:32:00,
2013-02-04 19:37:00,26.7,23.9,29.94,NW,321,7.0,9.0,89,0.00,,,0.00,Wunderground v.1.15,2013-02-05 01:37:00,
2013-02-04 19:42:00,26.8,24.0,29.94,NNW,341,7.0,7.0,89,0.00,,,0.00,Wunderground v.1.15,2013-02-05 01:42:00,
2013-02-04 19:48:00,26.8,24.0,29.94,NNW,346,7.0,8.0,89,0.00,,,0.00,Wunderground v.1.15,2013-02-05 01:48:00,
2013-02-04 19:53:00,26.6,23.8,29.94,North,352,7.0,8.0,89,0.00,,,0.00,Wunderground v.1.15,2013-02-05 01:53:00,
2013-02-04 19:58:00,26.6,23.8,29.94,NNW,334,7.0,8.0,89,0.00,,,0.00,Wunderground v.1.15,2013-02-05 01:58:00,
2013-02-04 20:04:00,26.4,23.6,29.95,NNW,341,6.0,8.0,89,0.00,,,0.00,Wunderground v.1.15,2013-02-05 02:04:00,
2013-02-04 20:09:00,26.3,23.5,29.95,NNW,334,6.0,8.0,89,0.00,,,0.00,Wunderground v.1.15,2013-02-05 02:09:00,
2013-02-04 20:14:00,26.3,23.5,29.95,NNW,332,7.0,8.0,89,0.00,,,0.00,Wunderground v.1.15,2013-02-05 02:14:00,
2013-02-04 20:19:00,26.2,23.4,29.95,NNW,332,7.0,8.0,89,0.00,,,0.00,Wunderground v.1.15,2013-02-05 02:19:00,
2013-02-04 20:24:00,26.1,23.3,29.96,NNW,336,7.0,11.0,89,0.00,,,0.00,Wunderground v.1.15,2013-02-05 02:24:00,
2013-02-04 20:29:00,25.7,22.9,29.95,NNW,337,8.0,11.0,89,0.00,,,0.00,Wunderground v.1.15,2013-02-05 02:29:00,
2013-02-04 20:35:00,25.1,22.3,29.96,NNW,334,9.0,11.0,89,0.00,,,0.00,Wunderground v.1.15,2013-02-05 02:35:00,
2013-02-04 20:40:00,24.8,22.3,29.96,NNW,331,9.0,11.0,90,0.00,,,0.00,Wunderground v.1.15,2013-02-05 02:40:00,
2013-02-04 20:45:00,24.6,22.1,29.96,North,352,9.0,11.0,90,0.00,,,0.00,Wunderground v.1.15,2013-02-05 02:45:00,
2013-02-04 20:50:00,24.4,21.9,29.96,NNW,338,8.0,10.0,90,0.00,,,0.00,Wunderground v.1.15,2013-02-05 02:50:00,
2013-02-04 20:55:00,24.2,21.7,29.95,NW,325,8.0,11.0,90,0.00,,,0.00,Wunderground v.1.15,2013-02-05 02:55:00,
2013-02-04 21:00:00,24.0,21.5,29.94,North,349,10.0,10.0,90,0.00,,,0.00,Wunderground v.1.15,2013-02-05 03:00:00,
2013-02-04 21:06:00,23.9,21.7,29.94,NNE,13,10.0,13.0,91,0.00,,,0.00,Wunderground v.1.15,2013-02-05 03:06:00,
2013-02-04 21:11:00,23.7,21.2,29.95,North,349,11.0,13.0,90,0.00,,,0.00,Wunderground v.1.15,2013-02-05 03:11:00,
2013-02-04 21:16:00,23.6,21.1,29.95,NNW,331,12.0,13.0,90,0.00,,,0.00,Wunderground v.1.15,2013-02-05 03:16:00,
2013-02-04 21:21:00,23.4,20.9,29.95,North,352,11.0,11.0,90,0.00,,,0.00,Wunderground v.1.15,2013-02-05 03:21:00,
2013-02-04 21:26:00,23.2,20.7,29.95,NNW,332,10.0,12.0,90,0.00,,,0.00,Wunderground v.1.15,2013-02-05 03:26:00,
2013-02-04 21:31:00,23.0,20.5,29.95,NNW,337,10.0,10.0,90,0.00,,,0.00,Wunderground v.1.15,2013-02-05 03:31:00,
2013-02-04 21:36:00,22.8,20.3,29.96,NNW,331,10.0,10.0,90,0.00,,,0.00,Wunderground v.1.15,2013-02-05 03:36:00,
2013-02-04 21:41:00,22.7,20.5,29.96,NNW,330,10.0,10.0,91,0.00,,,0.00,Wunderground v.1.15,2013-02-05 03:41:00,
2013-02-04 21:47:00,22.5,20.0,29.97,NNW,344,10.0,11.0,90,0.00,,,0.00,Wunderground v.1.15,2013-02-05 03:47:00,
2013-02-04 21:52:00,22.4,19.9,29.96,NW,326,10.0,12.0,90,0.00,,,0.00,Wunderground v.1.15,2013-02-05 03:52:00,
2013-02-04 21:57:00,22.2,19.7,29.96,NNW,329,10.0,12.0,90,0.00,,,0.00,Wunderground v.1.15,2013-02-05 03:57:00,
2013-02-04 22:02:00,22.0,19.5,29.97,NW,313,9.0,9.0,90,0.00,,,0.00,Wunderground v.1.15,2013-02-05 04:02:00,
2013-02-04 22:08:00,21.9,19.4,29.97,NW,308,8.0,11.0,90,0.00,,,0.00,Wunderground v.1.15,2013-02-05 04:08:00,
2013-02-04 22:13:00,21.8,19.3,29.97,NW,325,9.0,9.0,90,0.00,,,0.00,Wunderground v.1.15,2013-02-05 04:13:00,
2013-02-04 22:18:00,21.6,19.1,29.97,NNW,336,9.0,11.0,90,0.00,,,0.00,Wunderground v.1.15,2013-02-05 04:18:00,
2013-02-04 22:24:00,21.5,19.0,29.96,NW,325,9.0,9.0,90,0.00,,,0.00,Wunderground v.1.15,2013-02-05 04:24:00,
2013-02-04 22:29:00,21.5,19.0,29.96,NNW,346,7.0,9.0,90,0.00,,,0.00,Wunderground v.1.15,2013-02-05 04:29:00,
2013-02-04 22:35:00,21.4,18.9,29.96,North,355,8.0,11.0,90,0.00,,,0.00,Wunderground v.1.15,2013-02-05 04:35:00,
2013-02-04 22:41:00,21.2,18.5,29.96,NNW,344,8.0,11.0,89,0.00,,,0.00,Wunderground v.1.15,2013-02-05 04:41:00,
2013-02-04 22:46:00,21.1,18.4,29.96,NNW,344,8.0,11.0,89,0.00,,,0.00,Wunderground v.1.15,2013-02-05 04:46:00,
2013-02-04 22:52:00,21.0,18.3,29.96,North,351,7.0,8.0,89,0.00,,,0.00,Wunderground v.1.15,2013-02-05 04:52:00,
2013-02-04 22:57:00,20.9,18.2,29.96,NNW,335,7.0,8.0,89,0.00,,,0.00,Wunderground v.1.15,2013-02-05 04:57:00,
2013-02-04 23:00:00,20.9,18.2,29.96,North,350,7.0,7.0,89,0.00,,,0.00,Wunderground v.1.15,2013-02-05 05:00:00,
2013-02-04 23:02:00,20.8,18.1,29.96,NNW,345,7.0,7.0,89,0.00,,,0.00,Wunderground v.1.15,2013-02-05 05:02:00,
2013-02-04 23:04:00,20.7,18.0,29.97,NNW,331,7.0,8.0,89,0.00,,,0.00,Wunderground v.1.15,2013-02-05 05:04:00,
2013-02-04 23:05:00,20.7,18.0,29.96,NNW,331,7.0,8.0,89,0.00,,,0.00,Wunderground v.1.15,2013-02-05 05:05:00,
2013-02-04 23:11:00,20.6,17.9,29.97,NNW,333,7.0,7.0,89,0.00,,,0.00,Wunderground v.1.15,2013-02-05 05:11:00,
2013-02-04 23:16:00,20.5,17.8,29.97,NNW,333,6.0,7.0,89,0.00,,,0.00,Wunderground v.1.15,2013-02-05 05:16:00,
2013-02-04 23:21:00,20.4,17.7,29.97,West,278,5.0,6.0,89,0.00,,,0.00,Wunderground v.1.15,2013-02-05 05:21:00,
2013-02-04 23:27:00,20.2,17.5,29.98,NW,310,4.0,6.0,89,0.00,,,0.00,Wunderground v.1.15,2013-02-05 05:27:00,
2013-02-04 23:32:00,20.0,17.3,29.97,NW,305,4.0,5.0,89,0.00,,,0.00,Wunderground v.1.15,2013-02-05 05:32:00,
2013-02-04 23:38:00,19.8,17.3,29.97,West,269,4.0,5.0,90,0.00,,,0.00,Wunderground v.1.15,2013-02-05 05:38:00,
2013-02-04 23:43:00,19.7,17.2,29.97,NW,318,3.0,4.0,90,0.00,,,0.00,Wunderground v.1.15,2013-02-05 05:43:00,
2013-02-04 23:48:00,19.5,17.0,29.96,NNW,331,3.0,5.0,90,0.00,,,0.00,Wunderground v.1.15,2013-02-05 05:48:00,
2013-02-04 23:53:00,19.3,16.8,29.97,NW,314,4.0,5.0,90,0.00,,,0.00,Wunderground v.1.15,2013-02-05 05:53:00,
2013-02-04 23:59:00,19.2,16.7,29.96,West,278,4.0,6.0,90,0.00,,,0.00,Wunderground v.1.15,2013-02-05 05:59:00,